RH
88 100 97 82 50 66 90 72 93 99 70 72 88 56 78 77 66 60 56 54 41 29 23 12 7 5 4 2 1 1 1 2 1 1 2 2 3 3 3 4 4 6 13 16 19 18 21
42 92 72 84 70 56 77 78 100 92 92 61 65 62 81 78 77 69 73 56 47 30 26 11 8 6 4 2 1 2 1 2 1 1 2 2 3 3 4 4 5 7 10 15 20 23 23
99 34 100 100 94 83 94 96 68 84 90 70 60 69 75 70 74 78 77 54 55 32 27 11 7 6 4 2 2 2 2 1 1 1 2 2 3 3 4 5 6 9 12 18 20 32 26
100 44 48 76 87 99 82 91 89 66 72 77 66 63 87 60 83 85 79 53 57 37 24 14 8 7 4 2 2 2 2 1 1 1 2 2 3 4 4 5 6 10 13 14 18 34 41
100 93 86 100 100 100 100 100 72 62 72 64 59 48 57 70 82 91 82 56 60 46 28 13 9 8 3 3 2 2 2 1 1 1 2 2 3 5 5 6 7 10 13 20 30 36 67
100 100 99 97 100 71 100 100 77 78 83 65 54 55 58 85 87 87 81 61 60 46 26 12 9 7 3 4 3 2 2 1 1 1 2 2 3 6 6 6 7 11 12 21 30 35 83
95 86 98 82 92 99 86 87 80 82 71 68 47 58 68 100 96 87 83 67 68 47 30 12 8 5 3 3 2 2 2 1 1 1 2 3 4 7 7 8 12 23 16 27 32 49 70
65 59 64 85 80 67 75 74 66 78 77 60 55 57 75 100 100 94 82 72 63 56 31 12 10 6 4 4 2 2 2 1 2 2 2 3 5 9 9 12 14 16 28 34 27 41 57
20 23 41 58 64 66 66 77 69 72 70 65 56 53 78 100 100 95 85 76 57 59 29 12 10 8 6 4 3 2 2 2 2 2 3 4 6 11 11 12 16 25 27 23 25 32 44
10 10 10 16 33 40 29 43 43 48 47 68 73 47 94 100 99 94 86 84 62 60 28 14 11 8 7 6 3 2 3 2 2 2 3 4 7 12 12 12 13 15 31 22 16 33 23
8 9 10 10 11 13 16 20 41 43 46 54 64 57 100 100 100 98 94 82 71 59 31 16 12 8 7 7 4 3 3 2 2 4 4 4 7 14 11 11 10 12 17 19 22 17 16
7 7 8 10 11 17 20 21 32 30 55 86 65 67 95 100 100 100 97 78 74 65 34 22 14 9 6 5 4 3 3 4 3 4 5 6 8 12 14 14 11 12 13 16 16 14 11
6 7 8 10 11 14 19 23 35 29 54 86 65 88 100 100 100 100 99 76 74 71 43 21 17 10 7 5 5 3 3 4 3 4 6 6 8 14 15 13 16 15 13 15 14 10 10
6 7 6 8 11 16 21 23 25 21 42 72 99 100 100 100 100 100 100 80 76 72 48 26 19 14 10 6 5 4 4 5 5 4 6 8 14 20 22 19 16 20 15 14 17 13 14
5 5 5 6 9 17 22 23 22 15 43 100 100 100 100 100 100 100 100 86 81 72 54 28 19 19 12 8 7 5 3 5 8 5 6 6 10 14 18 20 19 18 19 19 19 18 19
4 5 5 5 7 14 18 22 20 24 66 100 100 100 100 100 100 100 99 89 85 64 55 34 18 21 17 9 7 6 5 4 6 9 7 7 9 9 14 18 20 18 18 19 18 17 17
4 4 4 5 7 10 15 17 16 38 64 100 100 100 100 100 100 100 94 88 85 61 58 54 26 18 15 10 8 7 6 5 5 8 11 9 9 11 13 14 18 19 18 17 18 19 21
3 4 4 5 5 8 15 17 14 44 100 100 100 100 100 100 100 100 94 86 78 63 60 68 29 20 16 11 9 9 8 7 6 6 9 13 12 11 12 17 19 20 19 19 18 18 19
3 4 3 3 7 8 16 22 61 76 100 100 100 100 100 100 100 100 98 83 75 64 63 74 34 24 22 16 13 9 9 9 8 6 6 10 15 14 12 10 14 18 21 22 19 19 19
3 4 3 4 7 9 43 56 79 89 100 100 100 100 100 100 100 100 91 81 77 68 64 80 44 28 26 23 18 12 10 10 10 8 7 8 10 14 16 15 15 18 21 23 26 24 22
2 3 4 4 6 19 52 86 68 100 100 100 100 100 100 100 100 100 87 85 75 77 69 74 57 41 32 29 20 17 11 11 12 12 8 7 8 9 13 17 18 18 19 19 25 24 26
2 3 3 4 9 38 100 88 100 100 100 100 100 100 100 100 100 100 86 83 73 80 78 76 62 56 39 30 22 20 15 12 13 14 14 11 9 9 10 12 18 19 20 22 23 24 28
3 3 4 7 31 100 100 100 100 100 100 100 97 99 100 100 100 95 89 82 79 86 81 75 58 57 44 33 26 24 24 16 13 15 15 15 18 14 10 11 13 16 18 22 24 26 28
4 3 4 13 94 98 88 73 100 99 100 100 100 100 100 100 100 95 92 83 92 83 84 72 63 54 50 38 34 32 28 26 19 17 15 16 19 25 25 15 13 13 15 21 29 32 32
4 4 5 24 100 100 100 93 100 100 100 100 100 100 100 100 100 98 92 89 94 82 98 79 71 58 49 39 38 40 40 38 26 23 21 18 17 21 25 24 19 13 12 16 19 22 35
4 4 7 90 100 100 100 100 99 92 100 100 100 100 100 100 99 99 89 89 93 86 90 85 76 65 56 39 37 40 40 49 49 40 30 22 19 17 22 26 30 29 21 18 20 29 37
5 4 19 91 92 100 100 99 100 99 97 98 100 100 100 100 91 90 97 92 87 88 87 94 76 68 59 46 34 40 43 53 46 60 44 40 35 30 24 21 24 27 28 30 27 24 23
13 22 56 96 100 100 98 100 100 100 99 100 100 100 99 95 90 95 100 90 81 83 83 92 82 75 66 53 40 33 38 46 49 57 65 57 56 41 44 38 30 25 24 23 28 31 31
36 42 65 82 69 68 90 100 100 100 100 100 100 100 100 94 85 97 100 84 94 94 88 90 87 82 67 63 52 39 31 34 45 50 58 63 62 54 43 43 51 51 28 29 24 22 25
Wind_Speed
82 85 87 82 77 75 77 69 75 78 91 92 96 98 93 101 107 94 91 92 90 89 86 82 75 77 79 72 59 51 40 38 35 30 34 42 49 57 62 71 82 89 98 102 105 106 105
86 89 87 84 79 79 74 73 76 84 91 98 95 93 95 100 102 95 91 90 89 87 86 80 76 77 78 73 60 52 40 38 34 28 31 41 51 58 64 71 80 86 93 98 101 104 105
95 96 87 91 84 81 80 78 85 91 93 97 96 94 96 98 87 87 87 89 88 87 86 78 75 77 79 72 64 52 43 36 30 26 28 37 49 59 66 72 81 87 91 98 103 104 102
108 102 97 97 90 88 89 85 88 95 94 92 95 98 92 89 90 82 84 87 87 86 84 79 73 79 76 71 68 53 44 35 26 21 27 38 49 60 65 71 80 88 90 93 96 100 100
106 105 101 101 93 94 94 95 92 96 95 96 96 89 84 84 81 80 83 85 85 86 84 78 73 78 75 71 70 52 42 32 20 17 24 36 47 60 67 71 80 84 86 89 97 98 98
100 99 97 100 103 95 97 100 99 96 96 96 92 85 82 80 81 78 80 82 83 83 82 74 75 77 72 74 69 51 40 27 14 15 26 35 47 59 66 69 76 80 83 89 95 97 99
108 111 111 111 101 97 97 101 107 105 97 92 85 79 81 78 76 76 77 79 82 82 82 72 71 73 73 71 65 50 35 22 8 11 25 32 45 56 61 65 78 88 87 92 93 99 101
120 116 113 110 108 108 107 105 103 96 92 85 78 75 76 76 72 74 73 75 79 79 80 70 72 73 76 72 64 46 33 21 8 8 23 34 41 56 66 72 81 86 89 90 93 95 100
100 101 110 110 102 100 99 97 97 93 90 83 79 71 69 72 67 70 70 72 75 77 75 66 68 73 77 75 64 47 32 23 11 7 20 36 44 57 66 75 80 85 88 88 88 94 99
84 77 76 79 84 84 81 89 86 85 82 80 69 66 64 64 63 66 66 69 73 75 71 66 68 71 75 75 64 45 30 22 11 4 16 30 42 55 66 73 78 84 89 87 87 91 95
66 62 49 57 67 58 64 63 67 69 69 68 65 60 62 61 60 63 62 66 69 72 69 65 66 67 71 73 64 44 27 21 11 4 12 22 39 52 61 69 72 78 83 86 86 89 91
63 58 56 47 51 51 58 58 59 63 63 60 57 54 54 55 57 57 58 62 64 69 68 66 66 67 70 69 61 46 25 18 10 4 12 23 36 50 59 62 61 72 77 81 82 83 82
61 61 55 50 55 38 54 53 59 55 54 56 52 48 50 52 53 52 54 58 60 65 64 61 65 66 70 66 59 48 28 20 9 6 15 23 33 43 50 57 65 69 73 80 81 75 72
62 64 72 55 54 43 43 49 52 51 51 47 43 44 48 48 47 47 50 54 55 61 59 57 62 68 70 68 61 50 34 19 13 5 13 24 33 40 48 53 59 70 70 71 75 70 69
69 71 76 73 58 46 43 46 46 43 41 38 38 41 45 43 42 43 45 50 52 58 55 53 56 67 70 68 60 52 36 19 14 7 4 17 31 39 45 52 60 64 68 70 70 71 72
68 81 71 72 64 51 47 42 45 39 40 37 35 40 42 38 37 38 40 45 49 53 53 50 53 60 63 64 59 52 44 27 14 9 2 5 18 31 42 49 56 61 63 66 68 69 71
71 74 77 73 71 62 51 44 42 36 34 35 35 37 37 33 31 33 35 39 45 48 48 52 53 57 58 58 57 55 46 33 20 11 6 5 8 19 29 42 50 55 60 63 64 67 70
79 77 77 68 74 60 47 42 37 32 33 35 36 34 32 28 26 28 31 34 40 45 42 50 51 56 61 59 54 52 45 39 26 16 8 5 6 12 24 33 41 49 55 59 59 62 64
75 76 81 71 68 58 47 47 39 36 36 33 33 33 29 24 23 24 28 31 36 40 40 48 49 55 61 61 56 52 49 41 31 20 12 5 4 8 11 24 33 42 48 54 56 59 61
69 77 74 70 66 58 55 46 44 42 38 33 35 33 28 22 21 22 25 27 31 36 36 43 49 51 58 61 61 55 50 44 37 29 18 10 6 5 7 15 23 32 42 46 52 56 60
57 75 71 69 66 63 58 58 47 43 38 36 34 32 27 21 21 20 22 24 27 33 33 39 45 50 54 59 59 56 51 45 41 34 28 18 12 9 8 10 14 20 29 36 49 52 55
55 66 69 67 65 62 58 52 47 44 36 35 34 31 27 20 19 17 20 20 24 30 33 38 42 48 53 59 60 57 53 43 39 36 33 27 20 14 11 12 13 16 20 25 34 41 53
54 56 69 71 70 67 59 49 49 43 41 36 33 31 25 21 19 17 18 18 20 27 30 34 38 44 50 57 58 57 52 49 40 35 28 29 28 24 19 14 15 19 17 20 25 33 40
54 56 68 73 74 68 63 59 54 46 40 37 33 31 26 23 18 17 16 16 19 24 26 28 36 40 45 49 54 57 56 52 47 38 33 30 26 24 23 16 17 17 19 23 26 28 36
55 64 64 77 75 69 60 55 56 49 43 38 34 31 27 24 17 17 15 15 16 20 24 25 32 37 41 43 51 55 56 56 54 48 40 39 34 24 22 20 17 18 19 23 26 28 33
55 63 66 72 71 64 59 54 46 43 43 38 36 33 28 22 19 18 15 14 14 18 19 23 27 34 37 40 45 50 52 51 55 56 53 47 40 34 30 27 26 23 25 26 30 33 39
63 57 72 76 68 64 60 53 47 41 41 38 37 33 28 24 22 18 14 14 13 17 17 23 25 30 35 39 40 46 50 52 54 55 56 53 50 45 38 31 30 29 29 27 24 33 41
68 70 76 73 74 68 61 54 48 46 42 42 39 34 29 27 23 17 15 16 13 16 17 21 24 28 32 36 39 42 46 48 54 49 53 51 51 49 49 45 39 32 33 33 30 27 30
78 80 80 74 67 68 62 54 51 46 41 43 38 33 30 27 22 18 18 15 15 18 18 19 22 27 29 35 38 41 43 46 48 55 54 52 52 49 46 46 50 48 38 37 35 33 32
Wind_Direction
290 288 295 293 298 296 299 301 303 309 314 313 315 318 317 319 321 321 321 322 325 328 332 336 335 339 337 337 333 330 320 308 293 268 239 226 214 211 210 210 210 211 210 214 216 218 219
292 290 290 289 292 294 295 300 301 305 309 311 311 314 313 317 320 319 320 321 324 329 332 337 336 340 338 339 340 337 325 308 291 266 238 222 212 208 206 207 207 208 209 213 214 218 218
285 291 284 288 289 291 292 296 301 302 305 307 308 312 311 318 320 319 320 320 324 329 333 337 337 342 338 342 345 340 327 313 291 262 232 216 210 207 205 205 203 208 208 210 213 216 219
282 286 283 283 287 286 288 290 296 299 300 304 308 310 312 315 318 318 319 320 324 329 333 337 338 343 339 346 347 339 331 321 296 255 222 210 204 204 206 204 204 204 206 210 213 213 218
275 278 279 279 280 284 287 289 292 296 297 301 306 308 310 315 316 318 318 320 324 330 332 336 342 342 344 349 347 340 334 324 297 238 215 208 202 202 203 202 202 204 204 207 211 212 215
275 274 275 275 278 282 282 285 289 291 294 297 303 306 309 311 314 317 317 320 323 330 333 339 343 343 348 349 347 341 338 328 288 226 201 202 200 200 201 202 202 204 206 207 210 211 213
272 276 276 277 276 273 278 280 285 287 290 294 301 303 306 308 312 316 316 319 324 329 332 341 342 345 351 352 351 343 342 338 297 222 200 194 197 198 198 197 198 203 206 208 211 214 213
270 272 273 272 275 273 276 280 281 284 287 291 297 300 303 307 308 313 315 319 322 329 334 341 345 350 354 352 354 348 345 352 330 203 203 184 194 194 193 193 200 202 206 209 211 214 218
267 268 268 267 270 274 275 275 278 280 283 287 292 298 302 304 307 311 315 318 322 328 336 340 347 353 357 353 355 353 353 0 347 175 185 183 187 191 194 196 200 201 208 210 210 215 218
261 263 267 268 267 269 271 270 272 276 278 280 286 295 298 301 305 309 314 318 322 327 337 340 349 355 358 353 356 354 356 3 11 139 173 182 185 192 196 199 201 200 207 212 211 217 220
259 255 250 259 263 271 275 270 266 268 272 276 282 289 292 296 301 308 312 317 322 326 338 340 349 357 359 356 358 359 2 11 27 100 164 180 183 192 202 205 205 206 209 213 216 215 221
251 247 242 250 241 257 263 264 263 261 266 270 277 284 291 292 298 306 311 317 323 326 337 341 349 359 3 1 0 2 4 24 40 89 159 175 189 194 200 207 212 210 213 216 219 223 223
255 229 234 240 229 245 260 258 257 256 262 266 271 279 283 289 296 303 311 316 324 326 339 343 351 1 3 0 4 4 8 24 42 120 165 177 184 196 203 206 208 214 217 218 223 227 229
218 226 224 222 220 233 240 250 250 252 256 261 264 273 277 285 294 301 310 316 324 328 341 345 354 1 2 1 3 10 6 19 28 69 174 179 179 192 202 209 209 214 221 224 226 232 230
224 222 225 221 215 215 225 239 244 238 251 250 255 264 271 281 291 300 309 315 325 330 341 348 357 1 3 360 2 8 15 19 23 31 141 189 191 196 200 206 210 215 220 223 226 229 233
227 228 223 222 214 213 213 223 232 234 238 242 248 258 265 276 288 299 309 315 323 333 340 351 356 6 6 0 4 5 10 13 23 27 338 195 210 206 206 206 212 218 220 223 227 230 231
217 219 217 218 208 206 204 213 217 222 230 228 244 253 262 273 284 297 309 316 324 334 345 352 353 3 10 6 3 6 11 13 11 17 5 290 233 214 217 214 214 219 224 226 228 229 231
224 220 215 212 212 204 193 207 210 208 214 225 240 245 256 266 281 296 308 318 326 336 347 348 355 2 9 10 8 10 5 13 16 9 7 329 304 229 216 219 219 220 223 227 231 232 233
226 216 221 217 207 194 187 200 200 204 207 221 237 243 250 260 278 294 305 318 329 337 348 349 359 2 3 8 17 15 9 8 15 14 7 349 317 298 256 231 223 222 223 226 229 232 235
224 218 218 210 202 184 186 194 199 201 205 222 234 239 242 251 272 291 304 319 332 339 349 350 357 2 4 5 12 17 16 14 13 17 15 357 315 285 286 250 245 235 229 229 230 232 234
224 216 212 208 197 183 183 185 192 195 205 219 228 232 235 244 266 286 299 318 334 341 348 350 356 4 3 3 8 18 16 16 15 18 17 9 355 312 283 267 256 252 247 242 233 235 236
219 215 211 205 190 179 181 186 184 189 206 212 221 225 230 239 261 278 292 317 334 341 345 349 357 1 1 3 5 14 21 21 19 20 17 20 9 346 321 289 273 258 251 253 251 249 241
210 213 201 189 174 176 183 185 188 191 198 208 217 222 225 235 252 271 287 315 335 341 345 346 358 3 2 3 2 10 21 26 28 26 23 25 25 10 356 326 300 274 268 258 254 251 250
204 203 194 180 171 177 179 180 185 190 198 204 208 217 220 232 243 264 283 310 333 339 347 344 356 3 3 1 2 6 10 19 27 27 25 19 11 10 7 349 309 295 275 266 261 258 255
200 197 192 174 175 177 182 180 181 185 191 196 204 213 218 225 235 257 274 302 325 338 346 340 353 2 4 5 7 7 7 10 15 23 30 23 16 11 1 353 331 316 300 284 274 266 265
202 198 187 172 178 176 179 180 188 190 189 193 197 208 215 223 230 248 265 295 316 334 341 333 351 358 1 5 8 6 7 11 17 16 23 26 24 17 8 7 355 330 311 306 287 277 269
198 196 182 175 175 174 179 179 185 192 200 199 199 204 214 222 229 243 262 284 304 323 335 332 347 352 360 4 8 8 12 14 13 16 17 25 20 21 18 7 3 356 344 333 311 286 278
192 185 174 174 176 175 178 182 184 189 198 197 198 207 214 221 226 238 258 274 295 315 329 330 342 349 356 2 2 6 8 14 16 17 24 24 24 18 14 19 9 356 351 347 337 308 287
183 179 177 178 178 175 177 182 185 190 197 196 197 203 210 216 223 236 253 271 297 309 323 327 335 339 351 357 0 2 5 6 15 14 15 19 21 18 13 10 16 10 355 348 338 327 311